EW8130 Weather Reports


Display with metric or nautical units.
time (UTC)temp
F
wind
direction
speed
MPH
gust
MPH
rain 1hr
in
rain 24hr
in
rain mn
in
humidity
%
barometer
mb
20240621224555 92 154 0.0 6.0 0.00 0.00 0.00 51 997.1
20240621223055 92 73 0.0 3.0 0.00 0.00 0.00 51 997.2
20240621221553 92 66 6.0 10.0 0.00 0.00 0.00 49 997.3
20240621220051 93 73 0.0 8.0 0.00 0.00 0.00 48 997.5
20240621214550 94 31 0.0 6.0 0.00 0.00 0.00 49 997.6
20240621213046 93 35 0.0 2.0 0.00 0.00 0.00 49 997.9
20240621211559 92 87 1.0 10.0 0.00 0.00 0.00 51 998.1
20240621210046 93 185 0.0 6.0 0.00 0.00 0.00 50 998.2
20240621204543 92 64 0.0 4.0 0.00 0.00 0.00 52 998.3
20240621203041 90 45 0.0 3.0 0.00 0.00 0.00 53 998.5
20240621201558 89 38 0.0 3.0 0.00 0.00 0.00 55 998.7
20240621200051 90 96 0.0 4.0 0.00 0.00 0.00 54 998.8
20240621194539 91 20 0.0 8.0 0.00 0.00 0.00 54 998.8
20240621193043 92 316 0.0 5.0 0.00 0.00 0.00 53 998.9
20240621191536 93 112 0.0 4.0 0.00 0.00 0.00 51 999.2
20240621190033 93 354 0.0 5.0 0.00 0.00 0.00 51 999.4
20240621184530 92 102 0.0 2.0 0.00 0.00 0.00 51 999.5
20240621183026 91 95 0.0 2.0 0.00 0.00 0.00 54 999.7
20240621181526 90 128 0.0 9.0 0.00 0.00 0.00 56 999.9
20240621180028 90 50 0.0 2.0 0.00 0.00 0.00 57 1000.1
20240621174525 90 72 0.0 10.0 0.00 0.00 0.00 55 1000.3
20240621173026 90 64 4.0 10.0 0.00 0.00 0.00 57 1000.5
20240621171528 89 185 0.0 9.0 0.00 0.00 0.00 59 1000.6
20240621170022 89 35 0.0 2.0 0.00 0.00 0.00 59 1000.7
20240621164526 89 61 0.0 2.0 0.00 0.00 0.00 60 1000.8
20240621163033 88 96 0.0 8.0 0.00 0.00 0.00 59 1000.9
20240621161518 87 78 0.0 8.0 0.00 0.00 0.00 62 1000.8
20240621160018 87 136 0.0 8.0 0.00 0.00 0.00 58 1000.8
20240621154514 86 70 0.0 6.0 0.00 0.00 0.00 60 1001.1
20240621153019 86 20 1.0 10.0 0.00 0.00 0.00 60 1001.1
20240621151509 86 64 0.0 8.0 0.00 0.00 0.00 66 1001.0
20240621150007 85 19 0.0 8.0 0.00 0.00 0.00 69 1001.0
20240621144507 84 14 0.0 2.0 0.00 0.00 0.00 71 1001.0
20240621143003 84 73 1.0 5.0 0.00 0.00 0.00 71 1000.9
20240621141559 83 16 0.0 2.0 0.00 0.00 0.00 73 1000.9
20240621140122 82 70 0.0 1.0 0.00 0.00 0.00 76 1000.9
20240621134603 82 29 0.0 2.0 0.00 0.00 0.00 78 1000.7
20240621133100 80 66 0.0 2.0 0.00 0.00 0.00 80 1000.6
20240621131600 80 61 2.0 9.0 0.00 0.00 0.00 81 1000.5
20240621130050 78 33 0.0 5.0 0.00 0.00 0.00 83 1000.5
20240621124550 77 36 0.0 2.0 0.00 0.00 0.00 85 1000.5
20240621123047 76 41 0.0 2.0 0.00 0.00 0.00 86 1000.4
20240621121547 75 19 0.0 1.0 0.00 0.00 0.00 88 1000.3
20240621120047 75 8 0.0 1.0 0.00 0.00 0.00 89 1000.3
20240621114553 74 56 0.0 1.0 0.00 0.00 0.00 88 1000.2
20240621113046 75 4 0.0 1.0 0.00 0.00 0.00 88 1000.0
20240621111549 75 4 0.0 0.0 0.00 0.00 0.00 87 1000.0
20240621110041 75 62 0.0 1.0 0.00 0.00 0.00 87 999.8
20240621104540 75 70 0.0 1.0 0.00 0.00 0.00 87 999.8
20240621103039 76 21 0.0 1.0 0.00 0.00 0.00 86 999.7
20240621101538 76 72 0.0 1.0 0.00 0.00 0.00 85 999.7
20240621100043 76 37 0.0 1.0 0.00 0.00 0.00 85 999.7
20240621094538 77 77 0.0 2.0 0.00 0.00 0.00 84 999.6
20240621093034 77 54 0.0 1.0 0.00 0.00 0.00 83 999.6
20240621091529 77 28 0.0 2.0 0.00 0.00 0.00 82 999.6
20240621090026 78 39 0.0 2.0 0.00 0.00 0.00 82 999.5
20240621084526 78 26 0.0 2.0 0.00 0.00 0.00 81 999.4
20240621083024 79 35 2.0 9.0 0.00 0.00 0.00 80 999.5
20240621081520 79 44 2.0 8.0 0.00 0.00 0.00 80 999.5
20240621080037 79 39 0.0 4.0 0.00 0.00 0.00 80 999.6
20240621074519 79 4 0.0 2.0 0.00 0.00 0.00 80 999.5
20240621073026 79 31 0.0 1.0 0.00 0.00 0.00 80 999.6
20240621071517 79 29 0.0 1.0 0.00 0.00 0.00 80 999.6
20240621070018 79 35 0.0 1.0 0.00 0.00 0.00 80 999.7
20240621064523 79 27 0.0 1.0 0.00 0.00 0.00 80 999.7
20240621063014 79 42 0.0 2.0 0.00 0.00 0.00 79 999.7
20240621061513 80 60 0.0 1.0 0.00 0.00 0.00 79 999.7
20240621060012 80 63 0.0 1.0 0.00 0.00 0.00 78 999.8
20240621054511 80 14 0.0 1.0 0.00 0.00 0.00 78 999.7
20240621053008 80 48 0.0 1.0 0.00 0.00 0.00 77 999.7
20240621051507 81 18 0.0 1.0 0.00 0.00 0.00 76 999.8
20240621050015 81 17 0.0 1.0 0.00 0.00 0.00 75 999.6
20240621044504 81 29 0.0 1.0 0.00 0.00 0.00 75 999.6
20240621043003 82 15 0.0 2.0 0.00 0.00 0.00 74 999.5
20240621041503 82 31 0.0 1.0 0.00 0.00 0.00 74 999.4
20240621040004 82 28 0.0 1.0 0.00 0.00 0.00 74 999.3
20240621034503 82 27 0.0 1.0 0.00 0.00 0.00 73 999.1
20240621033001 82 75 0.0 2.0 0.00 0.00 0.00 73 999.0
20240621031600 82 8 0.0 1.0 0.00 0.00 0.00 73 998.9
20240621030101 83 52 0.0 2.0 0.00 0.00 0.00 72 998.8
20240621030002 83 31 0.0 1.0 0.00 0.00 0.00 72 998.8
20240621024600 83 359 0.0 1.0 0.00 0.00 0.00 72 998.6
20240621023113 83 4 0.0 1.0 0.00 0.00 0.00 70 998.4
20240621021558 84 330 0.0 1.0 0.00 0.00 0.00 70 998.4
20240621020110 84 4 0.0 1.0 0.00 0.00 0.00 69 998.3
20240621014558 85 320 0.0 1.0 0.00 0.00 0.00 67 998.1
20240621013056 86 343 0.0 2.0 0.00 0.00 0.00 64 998.1
20240621011606 87 354 2.0 8.0 0.00 0.00 0.00 62 998.1
20240621010056 88 38 0.0 1.0 0.00 0.00 0.00 61 998.1
20240621004559 88 4 0.0 10.0 0.00 0.00 0.00 59 998.1
20240621003055 89 62 0.0 9.0 0.00 0.00 0.00 58 998.1
20240621001555 89 85 1.0 10.0 0.00 0.00 0.00 58 998.2
20240621000054 89 56 2.0 8.0 0.00 0.00 0.00 58 998.1
20240620234601 90 38 0.0 10.0 0.00 0.00 0.00 57 998.1
20240620233054 89 80 0.0 14.0 0.00 0.00 0.00 58 998.1
20240620231554 90 342 0.0 6.0 0.00 0.00 0.00 57 998.0
20240620230053 89 16 0.0 5.0 0.00 0.00 0.00 58 998.1